Home   Weather   Raleigh   Past weeks

Flag for USA Past Weather in Raleigh, North Carolina, USA — Yesterday and Last 2 Weeks

Now
85 °F

Broken clouds.


Feels Like: 88 °F
Forecast: 71 / 88 °F
Wind: 13 mph from Southwest

Location: Raleigh-Durham International Airport

Current Time: Apr 29, 2017 at 7:28:55 pm

Latest Report: Apr 29, 2017 at 6:51 pm


Visibility: 10 mi

Pressure: 30.11 "Hg

Humidity: 57%

Dew Point: 68 °F

Location of RaleighLocation

Past Weather in Raleigh — Graph

°F

Raleigh Temperature Yesterday

Maximum temperature yesterday: 87 °F (at 4:51 pm)
Minimum temperature yesterday: 69 °F (at 6:51 am)
Average temperature yesterday: 78 °F

High & Low Weather Summary for the Past Weeks

 TemperatureHumidityPressure
High88 °F (Apr 29, 4:51 pm)100% (Apr 22, 5:51 am)30.37 "Hg (Apr 22, 5:51 am)
Low53 °F (Apr 23, 9:51 am)34% (Apr 16, 4:51 pm)29.59 "Hg (Apr 25, 4:58 am)
Average68 °F75%30.02 "Hg
* Reported Apr 14 5:51 pm — Apr 29 5:51 pm, Raleigh, Weather by CustomWeather, © 2017

Note: Actual official high and low records may vary slightly from our data, if they occured in-between our weather recording intervals... More about our weather records

Advertising

Raleigh Weather History for the Previous 24 Hours

Scroll right to see more
 ConditionsComfort  
Time TempWeatherWind HumidityBarometerVisibility
5:51 pm
Sat, Apr 29
87 °FBroken clouds.12 mph55%30.11 "Hg10 mi
4:51 pm88 °FBroken clouds.12 mph55%30.12 "Hg10 mi
3:51 pm87 °FBroken clouds.15 mph57%30.12 "Hg10 mi
2:51 pm86 °FPartly sunny.12 mph57%30.14 "Hg10 mi
1:51 pm87 °FPartly sunny.12 mph59%30.15 "Hg10 mi
12:51 pm85 °FPartly sunny.12 mph61%30.16 "Hg10 mi
11:51 am84 °FPartly sunny.14 mph63%30.18 "Hg10 mi
10:51 am81 °FScattered clouds.9 mph69%30.19 "Hg10 mi
9:51 am79 °FScattered clouds.8 mph74%30.19 "Hg10 mi
8:51 am76 °FPartly sunny.13 mph82%30.18 "Hg8 mi
7:51 am74 °FBroken clouds.10 mph88%30.19 "Hg7 mi
6:51 am72 °FBroken clouds.8 mph91%30.17 "Hg8 mi
5:51 am73 °FPassing clouds.9 mph88%30.15 "Hg8 mi
4:51 am74 °FPassing clouds.12 mph88%30.14 "Hg7 mi
3:51 am74 °FPassing clouds.10 mph91%30.11 "Hg7 mi
2:51 am75 °FPassing clouds.10 mph88%30.09 "Hg7 mi
1:51 am76 °FPassing clouds.10 mph88%30.09 "Hg7 mi
12:51 am77 °FPassing clouds.12 mph85%30.09 "Hg8 mi
11:51 pm
Fri, Apr 28
78 °FPassing clouds.13 mph79%30.09 "Hg10 mi
10:51 pm79 °FPassing clouds.10 mph69%30.08 "Hg10 mi
9:51 pm80 °FPassing clouds.12 mph60%30.06 "Hg10 mi
8:51 pm80 °FPassing clouds.9 mph58%30.04 "Hg10 mi
7:51 pm82 °FPassing clouds.7 mph55%30.03 "Hg10 mi
Weather by CustomWeather, © 2017

See weather overviewHow to use our weather pages